HB9DDE-10 Weather Reports


time (UTC)temp
C
wind
direction
speed
KPH
gust
KPH
rain 1hr
cm
rain 24hr
cm
rain mn
cm
humidity
%
barometer
mb
20260502232348 14 139 0.0 0.0 0.00 0.00 0.00 77 1018.2
20260502231333 14 139 0.0 0.0 0.00 0.00 0.00 76 1018.3
20260502230843 14 139 0.0 0.0 0.00 0.00 0.00 75 1018.3
20260502230333 14 139 0.0 0.0 0.00 0.00 0.00 74 1018.3
20260502225844 15 139 0.0 1.6 0.00 0.00 0.00 74 1018.3
20260502225333 15 139 0.0 1.6 0.00 0.00 0.00 74 1018.3
20260502224844 15 139 0.0 1.6 0.00 0.00 0.00 74 1018.3
20260502224352 15 139 0.0 0.0 0.00 0.00 0.00 74 1018.3
20260502223841 15 139 0.0 0.0 0.00 0.00 0.00 73 1018.3
20260502223351 15 139 0.0 0.0 0.00 0.00 0.00 72 1018.3
20260502222846 15 139 0.0 0.0 0.00 0.00 0.00 72 1018.3
20260502222335 15 139 0.0 0.0 0.00 0.00 0.00 72 1018.3
20260502221845 15 139 0.0 0.0 0.00 0.00 0.00 71 1018.3
20260502221335 16 139 0.0 0.0 0.00 0.00 0.00 71 1018.3
20260502220847 16 139 0.0 1.6 0.00 0.00 0.00 71 1018.2
20260502220336 16 139 0.0 1.6 0.00 0.00 0.00 70 1018.2
20260502215846 16 139 0.0 1.6 0.00 0.00 0.00 70 1018.2
20260502215335 16 139 0.0 1.6 0.00 0.00 0.00 69 1018.2
20260502214847 16 139 0.0 1.6 0.00 0.00 0.00 68 1018.1
20260502214340 16 139 0.0 0.0 0.00 0.00 0.00 68 1018.1
20260502213851 16 139 0.0 0.0 0.00 0.00 0.00 68 1018.1
20260502213340 16 139 0.0 0.0 0.00 0.00 0.00 67 1018.1
20260502212849 17 139 0.0 0.0 0.00 0.00 0.00 66 1018.1
20260502212338 17 139 0.0 0.0 0.00 0.00 0.00 66 1018.0
20260502211848 17 139 0.0 0.0 0.00 0.00 0.00 66 1018.0
20260502211338 17 139 0.0 0.0 0.00 0.00 0.00 65 1018.1
20260502210847 17 139 0.0 0.0 0.00 0.00 0.00 64 1018.1
20260502210342 17 139 0.0 0.0 0.00 0.00 0.00 62 1018.1
20260502205851 18 139 0.0 0.0 0.00 0.00 0.00 61 1018.1
20260502205342 18 139 0.0 0.0 0.00 0.00 0.00 60 1018.0
20260502204851 18 139 0.0 0.0 0.00 0.00 0.00 59 1017.9
20260502204341 18 139 0.0 0.0 0.00 0.00 0.00 58 1017.9
20260502203850 18 139 0.0 0.0 0.00 0.00 0.00 58 1018.0
20260502203338 18 139 0.0 0.0 0.00 0.00 0.00 58 1018.1
20260502202848 18 139 0.0 0.0 0.00 0.00 0.00 59 1018.0
20260502202338 18 139 0.0 0.0 0.00 0.00 0.00 59 1018.0
20260502201833 18 139 0.0 0.0 0.00 0.00 0.00 59 1018.1
20260502201343 18 139 0.0 1.6 0.00 0.00 0.00 60 1018.0
20260502200853 18 139 0.0 1.6 0.00 0.00 0.00 60 1018.0
20260502200343 18 139 0.0 3.2 0.00 0.00 0.00 59 1018.1
20260502195852 18 139 0.0 3.2 0.00 0.00 0.00 57 1018.1
20260502194838 19 139 0.0 0.0 0.00 0.00 0.00 54 1017.9
20260502194347 19 139 0.0 0.0 0.00 0.00 0.00 54 1017.9
20260502193841 20 139 0.0 0.0 0.00 0.00 0.00 54 1017.9
20260502193351 20 139 0.0 0.0 0.00 0.00 0.00 53 1017.9
20260502192840 20 139 0.0 4.8 0.00 0.00 0.00 53 1017.9
20260502192349 20 139 0.0 8.0 0.00 0.00 0.00 49 1017.8
20260502191351 21 146 1.6 4.8 0.00 0.00 0.00 50 1017.7
20260502190841 21 302 0.0 0.0 0.00 0.00 0.00 49 1017.7
20260502190351 21 302 0.0 3.2 0.00 0.00 0.00 47 1017.6
20260502185841 21 302 0.0 6.4 0.00 0.00 0.00 45 1017.6
20260502185334 21 158 1.6 6.4 0.00 0.00 0.00 45 1017.5
20260502184847 22 232 0.0 4.8 0.00 0.00 0.00 45 1017.6
20260502184335 22 156 1.6 4.8 0.00 0.00 0.00 44 1017.5
20260502183847 22 189 0.0 1.6 0.00 0.00 0.00 44 1017.6
20260502183337 22 127 0.0 3.2 0.00 0.00 0.00 43 1017.4
20260502182847 22 150 0.0 3.2 0.00 0.00 0.00 43 1017.5
20260502182336 23 191 0.0 3.2 0.00 0.00 0.00 42 1017.4
20260502181847 23 181 0.0 3.2 0.00 0.00 0.00 42 1017.4
20260502181342 23 150 0.0 4.8 0.00 0.00 0.00 41 1017.5
20260502180833 23 88 0.0 4.8 0.00 0.00 0.00 40 1017.5
20260502180344 23 136 1.6 4.8 0.00 0.00 0.00 40 1017.5
20260502170342 27 70 0.0 1.6 0.00 0.00 0.00 34 1017.4
20260502164341 27 330 0.0 1.6 0.00 0.00 0.00 33 1017.5
20260502163341 27 330 0.0 1.6 0.00 0.00 0.00 32 1017.6
20260502162851 27 330 0.0 3.2 0.00 0.00 0.00 32 1017.6
20260502161851 28 330 0.0 1.6 0.00 0.00 0.00 31 1017.7
20260502161341 27 330 0.0 4.8 0.00 0.00 0.00 32 1017.8
20260502160849 28 330 0.0 4.8 0.00 0.00 0.00 32 1017.9
20260502160401 28 302 0.0 1.6 0.00 0.00 0.00 30 1018.0
20260502151842 30 247 0.0 1.6 0.00 0.00 0.00 31 1018.3
20260502151348 29 167 0.0 1.6 0.00 0.00 0.00 31 1018.3
20260502150841 28 169 0.0 4.8 0.00 0.00 0.00 32 1018.4
20260502150351 28 145 0.0 4.8 0.00 0.00 0.00 34 1018.4
20260502130350 26 326 1.6 4.8 0.00 0.00 0.00 36 1020.2
20260502123339 25 271 1.6 6.4 0.00 0.00 0.00 39 1020.7
20260502122849 25 307 1.6 6.4 0.00 0.00 0.00 40 1020.7
20260502122339 25 302 1.6 4.8 0.00 0.00 0.00 41 1020.8
20260502121849 25 141 0.0 1.6 0.00 0.00 0.00 41 1020.8
20260502121338 25 318 0.0 1.6 0.00 0.00 0.00 41 1020.9
20260502120833 25 310 0.0 8.0 0.00 0.00 0.00 43 1020.9
20260502120344 24 310 0.0 9.7 0.00 0.00 0.00 43 1021.0
20260502115852 25 343 1.6 9.7 0.00 0.00 0.00 42 1021.2
20260502115338 25 237 0.0 3.2 0.00 0.00 0.00 44 1021.2
20260502114848 25 274 0.0 1.6 0.00 0.00 0.00 45 1021.3
20260502114340 24 312 0.0 3.2 0.00 0.00 0.00 44 1021.4
20260502113850 23 155 0.0 9.7 0.00 0.00 0.00 46 1021.4
20260502113340 23 317 3.2 9.7 0.00 0.00 0.00 47 1021.5
20260502112834 23 286 0.0 8.0 0.00 0.00 0.00 46 1021.5
20260502112343 23 349 0.0 4.8 0.00 0.00 0.00 48 1021.7
20260502111853 23 256 0.0 4.8 0.00 0.00 0.00 46 1021.7
20260502111342 23 316 0.0 6.4 0.00 0.00 0.00 49 1021.9
20260502110833 22 316 0.0 6.4 0.00 0.00 0.00 50 1021.9
20260502110346 22 298 1.6 4.8 0.00 0.00 0.00 52 1022.0
20260502105836 22 321 0.0 4.8 0.00 0.00 0.00 50 1022.1
20260502105347 22 292 1.6 4.8 0.00 0.00 0.00 48 1022.2
20260502104836 22 319 1.6 6.4 0.00 0.00 0.00 49 1022.2
20260502104350 22 317 0.0 14.5 0.00 0.00 0.00 52 1022.3
20260502103839 22 336 6.4 14.5 0.00 0.00 0.00 50 1022.3
20260502103349 22 285 0.0 3.2 0.00 0.00 0.00 51 1022.5
20260502102839 21 205 0.0 4.8 0.00 0.00 0.00 50 1022.5
20260502101845 21 318 1.6 4.8 0.00 0.00 0.00 53 1022.7
20260502101335 21 265 0.0 6.4 0.00 0.00 0.00 52 1022.8
20260502100845 20 300 1.6 6.4 0.00 0.00 0.00 54 1022.8
20260502100339 20 332 1.6 6.4 0.00 0.00 0.00 53 1022.9
20260502091341 18 296 0.0 3.2 0.00 0.00 0.00 61 1023.5
20260502090850 17 314 0.0 4.8 0.00 0.00 0.00 62 1023.6
20260502090340 17 278 0.0 4.8 0.00 0.00 0.00 62 1023.6
20260502071340 12 140 0.0 1.6 0.00 0.00 0.00 76 1024.3
20260502070850 11 140 0.0 1.6 0.00 0.00 0.00 76 1024.3
20260502070344 11 140 0.0 1.6 0.00 0.00 0.00 77 1024.3
20260502065833 11 140 0.0 1.6 0.00 0.00 0.00 78 1024.3
20260502065344 11 140 0.0 1.6 0.00 0.00 0.00 79 1024.4
20260502064833 10 140 0.0 1.6 0.00 0.00 0.00 80 1024.4
20260502064343 10 140 0.0 1.6 0.00 0.00 0.00 81 1024.4
20260502063833 10 140 0.0 0.0 0.00 0.00 0.00 82 1024.4
20260502063344 9 140 0.0 0.0 0.00 0.00 0.00 83 1024.4
20260502062852 9 140 0.0 0.0 0.00 0.00 0.00 84 1024.4
20260502062344 8 140 0.0 0.0 0.00 0.00 0.00 84 1024.4
20260502061835 8 140 0.0 0.0 0.00 0.00 0.00 86 1024.4
20260502061348 8 140 0.0 0.0 0.00 0.00 0.00 86 1024.4
20260502060839 8 140 0.0 0.0 0.00 0.00 0.00 87 1024.4
20260502060348 8 140 0.0 0.0 0.00 0.00 0.00 87 1024.4
20260502055838 8 140 0.0 0.0 0.00 0.00 0.00 87 1024.5
20260502055348 7 140 0.0 0.0 0.00 0.00 0.00 87 1024.4
20260502054839 7 140 0.0 0.0 0.00 0.00 0.00 87 1024.4
20260502054348 7 140 0.0 0.0 0.00 0.00 0.00 87 1024.4
20260502053842 7 140 0.0 0.0 0.00 0.00 0.00 87 1024.4
20260502053352 7 140 0.0 0.0 0.00 0.00 0.00 87 1024.4
20260502052842 7 140 0.0 0.0 0.00 0.00 0.00 87 1024.4
20260502052333 7 140 0.0 0.0 0.00 0.00 0.00 87 1024.4
20260502051842 7 140 0.0 0.0 0.00 0.00 0.00 87 1024.4
20260502051352 7 140 0.0 0.0 0.00 0.00 0.00 88 1024.3
20260502050923 7 140 0.0 0.0 0.00 0.00 0.00 87 1024.3
20260502050349 7 140 0.0 0.0 0.00 0.00 0.00 88 1024.2
20260502045838 7 140 0.0 0.0 0.00 0.00 0.00 88 1024.2
20260502045348 6 140 0.0 0.0 0.00 0.00 0.00 88 1024.3
20260502044843 6 140 0.0 0.0 0.00 0.00 0.00 88 1024.2
20260502044334 6 140 0.0 0.0 0.00 0.00 0.00 88 1024.2
20260502043846 6 140 0.0 0.0 0.00 0.00 0.00 88 1024.2
20260502043334 6 140 0.0 0.0 0.00 0.00 0.00 88 1024.2
20260502042845 6 140 0.0 1.6 0.00 0.00 0.00 88 1024.1
20260502042334 6 140 0.0 1.6 0.00 0.00 0.00 88 1024.2
20260502041845 6 140 0.0 0.0 0.00 0.00 0.00 87 1024.1
20260502041335 6 140 0.0 0.0 0.00 0.00 0.00 87 1024.1
20260502040845 6 140 0.0 0.0 0.00 0.00 0.00 87 1024.2
20260502040340 7 140 0.0 1.6 0.00 0.00 0.00 87 1024.2
20260502035851 7 140 0.0 1.6 0.00 0.00 0.00 87 1024.1
20260502035340 7 140 0.0 0.0 0.00 0.00 0.00 87 1024.1
20260502034850 7 140 0.0 0.0 0.00 0.00 0.00 86 1024.0
20260502034339 7 140 0.0 0.0 0.00 0.00 0.00 86 1024.0
20260502033849 7 140 0.0 0.0 0.00 0.00 0.00 85 1024.1
20260502033340 7 140 0.0 0.0 0.00 0.00 0.00 85 1024.1
20260502032849 7 140 0.0 0.0 0.00 0.00 0.00 86 1024.1
20260502032343 7 140 0.0 0.0 0.00 0.00 0.00 85 1024.1
20260502031853 7 140 0.0 0.0 0.00 0.00 0.00 85 1024.0
20260502031342 7 140 0.0 0.0 0.00 0.00 0.00 85 1024.0
20260502030833 7 140 0.0 0.0 0.00 0.00 0.00 85 1024.0
20260502030344 7 140 0.0 1.6 0.00 0.00 0.00 85 1024.0
20260502025852 7 140 0.0 1.6 0.00 0.00 0.00 86 1024.0
20260502025341 7 140 0.0 1.6 0.00 0.00 0.00 85 1024.0
20260502024850 7 140 0.0 1.6 0.00 0.00 0.00 85 1024.1
20260502024339 7 140 0.0 0.0 0.00 0.00 0.00 85 1024.1
20260502023833 7 140 0.0 0.0 0.00 0.00 0.00 85 1024.2
20260502023344 7 140 0.0 0.0 0.00 0.00 0.00 85 1024.1
20260502022834 7 140 0.0 0.0 0.00 0.00 0.00 84 1024.2
20260502022347 7 140 0.0 0.0 0.00 0.00 0.00 84 1024.1
20260502021835 7 140 0.0 0.0 0.00 0.00 0.00 85 1024.2
20260502021345 7 140 0.0 0.0 0.00 0.00 0.00 85 1024.2
20260502020836 7 140 0.0 0.0 0.00 0.00 0.00 84 1024.1
20260502020346 7 140 0.0 0.0 0.00 0.00 0.00 84 1024.2
20260502015840 7 140 0.0 0.0 0.00 0.00 0.00 83 1024.1
20260502015349 7 140 0.0 0.0 0.00 0.00 0.00 83 1024.1
20260502014839 7 140 0.0 0.0 0.00 0.00 0.00 83 1024.1
20260502014350 8 140 0.0 0.0 0.00 0.00 0.00 83 1024.1
20260502013840 8 140 0.0 0.0 0.00 0.00 0.00 82 1024.1
20260502013350 8 140 0.0 0.0 0.00 0.00 0.00 82 1024.1
20260502012840 8 140 0.0 0.0 0.00 0.00 0.00 82 1024.2
20260502012349 8 140 0.0 0.0 0.00 0.00 0.00 81 1024.1
20260502011841 8 140 0.0 0.0 0.00 0.00 0.00 80 1024.0
20260502011334 8 140 0.0 0.0 0.00 0.00 0.00 80 1024.0
20260502010843 8 140 0.0 0.0 0.00 0.00 0.00 80 1024.0
20260502005843 8 140 0.0 0.0 0.00 0.00 0.00 81 1024.0
20260502005352 8 140 0.0 0.0 0.00 0.00 0.00 80 1024.0
20260502004841 8 140 0.0 0.0 0.00 0.00 0.00 80 1024.1
20260502004350 8 140 0.0 0.0 0.00 0.00 0.00 79 1024.1
20260502003841 8 140 0.0 0.0 0.00 0.00 0.00 79 1024.0
20260502003334 8 140 0.0 0.0 0.00 0.00 0.00 79 1024.0
20260502002845 8 140 0.0 0.0 0.00 0.00 0.00 79 1024.0
20260502002335 9 140 0.0 0.0 0.00 0.00 0.00 79 1024.0
20260502001844 8 140 0.0 0.0 0.00 0.00 0.00 78 1024.0
20260502001334 9 140 0.0 0.0 0.00 0.00 0.00 78 1024.1
20260502000845 9 140 0.0 0.0 0.00 0.00 0.00 76 1024.1
20260502000333 9 140 0.0 0.0 0.00 0.00 0.00 76 1024.1
20260501235340 10 140 0.0 0.0 0.00 0.00 0.00 75 1024.2
20260501234834 10 140 0.0 0.0 0.00 0.00 0.00 75 1024.2
20260501234344 10 140 0.0 0.0 0.00 0.00 0.00 75 1024.1
20260501233852 10 140 0.0 0.0 0.00 0.00 0.00 75 1024.0
20260501233343 10 140 0.0 0.0 0.00 0.00 0.00 75 1024.0
20260501232832 10 140 0.0 0.0 0.00 0.00 0.00 74 1024.1